CW3742 Weather Reports


time (UTC)temp
F
wind
direction
speed
knots
gust
knots
rain 1hr
in
rain 24hr
in
rain mn
in
humidity
%
barometer
mb
20260502220017 60 0 5.2 13.9 0.00 0.00 0.00 32 1016.9
20260502213017 60 0 5.2 12.2 0.00 0.00 0.00 30 1017.1
20260502210017 61 0 4.3 14.8 0.00 0.00 0.00 30 1017.3
20260502203017 59 0 3.5 7.8 0.00 0.00 0.00 32 1017.7
20260502200017 59 0 5.2 13.9 0.00 0.00 0.00 29 1018.1
20260502193017 59 0 3.5 13.0 0.00 0.00 0.00 32 1018.3
20260502190017 59 0 1.7 7.0 0.00 0.00 0.00 32 1018.7
20260502183017 58 0 3.5 9.6 0.00 0.00 0.00 31 1018.8
20260502163017 53 0 3.5 8.7 0.00 0.00 0.00 43 1019.6
20260502123017 41 0 4.3 7.8 0.00 0.00 0.00 85 1018.9
20260502113017 40 0 3.5 6.1 0.00 0.00 0.00 84 1018.4
20260502110018 40 0 4.3 7.8 0.00 0.00 0.00 83 1018.2
20260502103017 41 0 4.3 7.8 0.00 0.00 0.00 82 1018.2
20260502070017 46 0 1.7 2.6 0.00 0.00 0.00 69 1017.6
20260502063017 46 0 1.7 3.5 0.00 0.00 0.00 71 1017.6
20260502060037 46 0 0.9 2.6 0.00 0.00 0.00 71 1017.8
20260502053017 48 0.0 0.9 0.00 0.00 0.00 66 1017.8
20260502050017 47 0.0 1.7 0.00 0.00 0.00 66 1017.8
20260502043017 47 0.0 2.6 0.00 0.00 0.00 66 1017.6
20260502040018 47 45 1.7 2.6 0.00 0.00 0.00 69 1017.7
20260502033017 47 0.0 1.7 0.00 0.00 0.00 67 1017.7
20260502030017 48 45 0.9 3.5 0.00 0.00 0.00 66 1017.4
20260502023017 49 0 0.9 3.5 0.00 0.00 0.00 65 1016.9
20260502020019 50 0 0.9 4.3 0.00 0.00 0.00 65 1016.7
20260502013017 50 0 2.6 6.1 0.00 0.00 0.00 63 1016.1
20260502010017 51 0 0.9 3.5 0.00 0.00 0.00 63 1015.6
20260502003017 52 90 0.9 4.3 0.00 0.00 0.00 63 1015.4
20260502000017 52 0 3.5 7.8 0.00 0.00 0.00 61 1015.2
20260501233017 53 0 5.2 12.2 0.00 0.00 0.00 59 1015.1
20260501230018 54 0 4.3 11.3 0.00 0.00 0.00 56 1015.2
20260501223017 54 0 6.1 15.6 0.00 0.00 0.00 55 1015.2